Weather History for Glens Falls, NY

Change the Weather History Date:

Tuesday, January 21, 2014

  Actual Average Record
Temperature  
Mean Temperature 3 °F 17 °F  
Max Temperature 7 °F 28 °F 53 °F (2006)
Min Temperature -1 °F 7 °F -27 °F (1994)
Degree Days  
Heating Degree Days 62 48  
Month to date heating degree days 952 988  
Since 1 July heating degree days 3891 3926  
Cooling Degree Days 0 0  
Month to date cooling degree days 0 0  
Year to date cooling degree days 0 0  
Moisture  
Dew Point -8 °F    
Average Humidity 63    
Maximum Humidity 72    
Minimum Humidity 54    
Precipitation  
Precipitation 0.00 in 0.10 in 1.43 in (1979)
Month to date precipitation 1.91 1.94  
Year to date precipitation 1.91 1.94  
Sea Level Pressure  
Sea Level Pressure 30.11 in    
Wind  
Wind Speed 8 mph (NE)    
Max Wind Speed 17 mph    
Max Gust Speed 22 mph    
Visibility 10 miles    
Events      
T = Trace of Precipitation, MM = Missing Value Source: NWS Daily Summary

Daily Weather History Graph

Daily Weather History Graph

Search for Another Location

Airport:

Trip Planner

Search our weather history database for the weather conditions in past years. The results will help you decide how hot, cold, wet, or windy it might be!

Date:

Astronomy

Jan. 21, 2014 Rise Set
Actual Time 7:20 AM EST 4:51 PM EST
Civil Twilight 6:49 AM EST 5:22 PM EST
Nautical Twilight 6:14 AM EST 5:57 PM EST
Astronomical Twilight 5:40 AM EST 6:31 PM EST
Moon 10:32 PM EST (1/21) 9:38 AM EST (1/21)
Length of Visible Light 10h 33m
Length of Day
9h 31m
Waning Gibbous, 75% of the Moon is Illuminated
Jan 21
Waning Gibbous
Jan 24
Last Quarter
Jan 30
New
Feb 6
First Quarter
Feb 14
Full

Hourly Weather History & Observations

Time (EST) Temp. Windchill Dew Point Humidity Pressure Visibility Wind Dir Wind Speed Gust Speed Precip Events Conditions
12:53 AM 6.1 °F -6.8 °F -6.0 °F 58% 30.03 in 10.0 mi NW 8.1 mph - N/A   Clear
1:53 AM 3.9 °F -9.4 °F -8.0 °F 58% 30.06 in 10.0 mi North 8.1 mph - N/A   Clear
2:53 AM 3.0 °F -8.0 °F -9.0 °F 57% 30.08 in 10.0 mi North 5.8 mph - N/A   Clear
3:53 AM 1.9 °F -9.2 °F -9.0 °F 60% 30.08 in 10.0 mi North 5.8 mph - N/A   Clear
4:53 AM 1.0 °F -6.7 °F -8.0 °F 66% 30.08 in 10.0 mi NNE 3.5 mph - N/A   Clear
5:53 AM 1.9 °F - -9.0 °F 60% 30.10 in 10.0 mi Calm Calm - N/A   Clear
6:53 AM 1.0 °F -11.7 °F -8.0 °F 66% 30.11 in 10.0 mi ENE 6.9 mph - N/A   Clear
7:53 AM -0.0 °F -13.0 °F -7.1 °F 72% 30.12 in 10.0 mi ENE 6.9 mph - N/A   Clear
8:53 AM -0.0 °F -15.3 °F -7.1 °F 72% 30.15 in 10.0 mi ENE 9.2 mph - N/A   Clear
9:53 AM 1.0 °F -14.9 °F -8.0 °F 66% 30.17 in 10.0 mi NE 10.4 mph - N/A   Clear
10:53 AM 1.9 °F -10.6 °F -8.0 °F 63% 30.17 in 10.0 mi ENE 6.9 mph - N/A   Clear
11:53 AM 3.0 °F -9.3 °F -7.1 °F 63% 30.16 in 10.0 mi ENE 6.9 mph - N/A   Clear
12:53 PM 3.9 °F -6.9 °F -7.1 °F 60% 30.14 in 10.0 mi East 5.8 mph - N/A   Clear
1:53 PM 5.0 °F -8.1 °F -8.0 °F 55% 30.12 in 10.0 mi East 8.1 mph - N/A   Scattered Clouds
2:53 PM 5.0 °F -10.0 °F -8.0 °F 55% 30.10 in 10.0 mi ENE 10.4 mph - N/A   Clear
3:53 PM 5.0 °F -10.0 °F -9.0 °F 52% 30.09 in 10.0 mi ENE 10.4 mph - N/A   Clear
4:53 PM 3.9 °F -12.2 °F -8.0 °F 58% 30.08 in 10.0 mi NE 11.5 mph - N/A   Mostly Cloudy
5:53 PM 5.0 °F -9.1 °F -7.1 °F 58% 30.10 in 10.0 mi NE 9.2 mph - N/A   Mostly Cloudy
6:53 PM 3.9 °F -11.3 °F -8.0 °F 58% 30.12 in 10.0 mi NNE 10.4 mph - N/A   Clear
7:53 PM 3.0 °F -14.8 °F -7.1 °F 63% 30.12 in 10.0 mi North 13.8 mph - N/A   Clear
8:53 PM 3.0 °F -12.5 °F -6.0 °F 66% 30.13 in 10.0 mi North 10.4 mph - N/A   Clear
9:53 PM 1.0 °F -14.9 °F -7.1 °F 69% 30.13 in 10.0 mi North 10.4 mph - N/A   Clear
10:53 PM -0.0 °F -9.9 °F -9.0 °F 66% 30.11 in 10.0 mi NNE 4.6 mph - N/A   Clear
11:53 PM -0.9 °F -12.7 °F -9.9 °F 66% 30.09 in 10.0 mi NNE 5.8 mph - N/A   Clear